Regional Weather Roundup
Issued by NWS

Home | Current Version | Previous Version | Graphics & Text | Print | Product List | Glossary On
Versions: 1 2 3 4 5 6 7 8 9 10 11 12 13 14 15 16 17 18 19 20 21 22 23 24 25 26 27 28 29 30 31 32 33 34 35 36 37 38 39 40 41 42 43 44 45 46 47 48 49 50
000
ASUS43 KDMX 181106
RWRIA

WEATHER ROUNDUP FOR IOWA
NATIONAL WEATHER SERVICE DES MOINES IA
500 AM CST THU JAN 18 2018

NOTE: "FAIR" INDICATES FEW OR NO CLOUDS BELOW 12,000 FEET WITH NO
SIGNIFICANT WEATHER AND/OR OBSTRUCTIONS TO VISIBILITY.

* - THESE STATIONS ARE NOT NWS STATIONS...THUS NOT UNDER NWS
QUALITY CONTROL.  THEY ALSO DO NOT REPORT WEATHER SUCH
AS PRECIPITATION OR FOG.

IAZ001>003-012>014-020>022-031>034-043>046-181200-
   NORTHWEST IOWA

CITY           SKY/WX    TMP DP  RH WIND       PRES   REMARKS
CARROLL *      CLOUDY    19  12  73 SW20G26   30.09F WCI   4
CHEROKEE *     CLOUDY    15  12  88 S3        30.08F
DENISON *      CLOUDY    18  12  79 SW8       30.12F WCI   7
LE MARS *      CLOUDY    18  14  86 S7        30.05F WCI   8
ORANGE CITY *  CLOUDY    18  16  93 S10       30.02F WCI   6
SHELDON *      CLOUDY    18  14  86 S9        30.00F WCI   6
SIOUX CITY     CLOUDY    12   9  87 E9        30.08F WCI   0
SPENCER        CLOUDY    17  12  80 SW10      30.02F WCI   5
STORM LAKE *   CLOUDY    19  14  79 SW16      30.05F WCI   5
$$

IAZ055>058-069>071-079>083-090>094-181200-
   SOUTHWEST IOWA

CITY           SKY/WX    TMP DP  RH WIND       PRES   REMARKS
ATLANTIC *     CLOUDY    10   7  85 S8        30.16F WCI  -1
AUDUBON *      CLOUDY    18  10  73 CALM      30.12F
CLARINDA *     CLOUDY    12   9  85 S5        30.25  WCI   4
COUNCIL BLFS * CLOUDY    19  12  73 SW13      30.14F WCI   7
CRESTON *      CLOUDY    16  10  79 SW12      30.20S WCI   3
HARLAN  *      CLOUDY    12   9  85 S6        30.17F WCI   3
LAMONI         CLEAR     17   9  70 SW14      30.20F WCI   3
RED OAK *      CLOUDY    10   7  85 S7        30.20F WCI   0
SHENANDOAH *   CLOUDY    16   9  73 SW7       30.22F WCI   6
$$

IAZ047>049-059>061-072>074-084-181200-
   CENTRAL IOWA

CITY           SKY/WX    TMP DP  RH WIND       PRES   REMARKS
AMES           CLOUDY    16  10  77 S9        30.12F WCI   4
ANKENY *       CLOUDY    21  10  63 SW10      30.16F WCI  10
BOONE *        CLOUDY    21  12  68 SW16      30.08F WCI   7
CHARITON *     CLOUDY    18  10  73 SW10      30.19F WCI   6
DES MOINES     CLEAR     21  10  62 SW12      30.16F WCI   9
GRINNELL*      CLOUDY    17  11  79 SW15      30.16F WCI   2
KNOXVILLE *    CLOUDY    19   9  63 SW10      30.18S WCI   8
MARSHALLTOWN   CLOUDY    19  11  70 SW12      30.11F WCI   7
NEWTON *       CLEAR     18  10  73 SW12      30.15F WCI   5
PELLA *        CLOUDY    20  11  68 W9        30.20S WCI   9
PERRY *          N/A     18   9  68 SW5       30.13F WCI  11
$$

IAZ004>006-015-016-023>025-035-036-181200-
   NORTH CENTRAL IOWA

CITY           SKY/WX    TMP DP  RH WIND       PRES   REMARKS
ALGONA *       CLOUDY    19  19 100 SW17      30.01F WCI   4
CLARION *      CLOUDY    16  14  93 SW12      30.07F WCI   3
ESTHERVILLE    CLOUDY    20  15  81 SW17      29.99F WCI   5
FORT DODGE *   CLOUDY    17  12  80 SW8       30.08F WCI   7
MASON CITY     CLOUDY    19  11  70 SW10      30.05F WCI   7
FOREST CITY *    N/A     18  12  79 S7        30.03F WCI   8
WEBSTER CITY * CLOUDY    19  12  73 SW13      30.07S WCI   7
IOWA FALLS *     N/A     19  13  79 SW7       30.10F WCI  10
$$

IAZ007>011-017>019-026>030-037>042-050>054-066-181200-
   NORTHEAST IOWA

CITY           SKY/WX    TMP DP  RH WIND       PRES   REMARKS
CEDAR RAPIDS     N/A     16  10  77 SW7       30.14F WCI   6
CHARLES CITY *   N/A     18  12  79 SW9       30.07F WCI   6
CLINTON *        N/A     15  10  80 SW15      30.18S WCI   0
DECORAH *        N/A     18  12  79 SW6       30.04F WCI   9
DUBUQUE          N/A     16   9  74 SW12      30.10F WCI   3
MONTICELLO *     N/A     18  10  73 W8        30.13F WCI   7
OELWEIN *        N/A     12  12 100 SW9       30.10F WCI   0
WATERLOO         N/A     15   9  76 SW7       30.11F WCI   5
$$

IAZ064-065-067-068-078-181200-
   EAST CENTRAL IOWA

CITY           SKY/WX    TMP DP  RH WIND       PRES   REMARKS
DAVENPORT        N/A     18  10  71 SW14      30.20F WCI   4
IOWA CITY        N/A     18   9  68 SW5       30.21F WCI  11
MT. PLEASANT * CLOUDY    18  10  73 SW12      30.24S WCI   5
MUSCATINE *      N/A     18  10  73 SW9       30.23F WCI   6
QUAD CITIES      N/A     18  11  74 SW10      30.20F WCI   6
$$

IAZ062-063-075>077-085>089-095>099-181200-
   SOUTHEAST IOWA

CITY           SKY/WX    TMP DP  RH WIND       PRES   REMARKS
BURLINGTON     CLOUDY    16   8  71 SW12      30.24F WCI   3
FAIRFIELD *    CLOUDY    18   9  68 SW12      30.21F WCI   5
FORT MADISON * CLOUDY    16  10  79 SW9       30.25F WCI   4
KEOKUK *       CLOUDY    16  10  79 SW12      30.27R WCI   3
OSKALOOSA *      N/A     17  11  77 SW10      30.20F WCI   5
OTTUMWA        CLOUDY    18   9  68 SW14      30.20F WCI   4
WASHINGTON *   CLOUDY    18  12  79 SW14      30.21F WCI   4
$$

ABBREVIATIONS USED IN REMARKS
   TC - TEMPERATURES IN CELSIUS
  WCI - WIND CHILL INDEX
   HX - HEAT INDEX
  VSB - VISIBILITY
$$





USA.gov is the U.S. government's official web portal to all federal, state and local government web resources and services.